Flag for France Weather past 2 weeks in Rennes, France

Now
59 °F

Clear.


Feels Like: 57 °F
Forecast: 48 / 67 °F
Wind: 9 mph from North

Location: Rennes Airport

Current Time: Sep 23, 2014 at 9:15:47 PM

Latest Report: Sep 23, 2014 at 8:30 PM


Visibility: 4 mi

Pressure: 30.07 "Hg

Humidity: 68%

Dew point: 48 °F

Location of RennesLocation

Historic Weather in Rennes — Graph

°F

Rennes temperature yesterday

Maximum temperature yesterday: 68 °F (at 3:00 PM)
Minimum temperature yesterday: 48 °F (at 7:00 AM)
Average temperature yesterday: 59 °F

Past Weeks' High & Low Weather Summary

 TemperatureHumidityPressure
High81 °F (Sep 9, 4:00 PM)100% (Sep 9, 4:00 AM)30.27 "Hg (Sep 9, 4:00 AM)
Low45 °F (Sep 23, 5:00 AM)21% (Sep 9, 2:00 PM)29.68 "Hg (Sep 17, 5:30 AM)
Average65 °F73%29.99 "Hg
* Reported Sep 8 8:00 PM — Sep 23 8:00 PM, Rennes, Weather by CustomWeather, © 2014

Note: Actual official high and low records may vary slightly from our data, if they occured in-between our weather recording intervals... More about our weather records

Advertising

Rennes weather history for previous 24 hours

 ConditionsComfort  
Time TempWeatherWind HumidityBarometerVisibility
8:00 PM
Sep 23
61 °FClear.8 mph63%30.07 "Hg6 mi
7:30 PM63 °FClear.8 mph56%30.07 "HgN/A
7:00 PM64 °FClear.8 mph49%30.07 "HgN/A
6:30 PM64 °FClear.7 mph52%30.07 "HgN/A
6:00 PM66 °FClear.10 mph49%30.04 "HgN/A
5:30 PM66 °FClear.9 mph46%30.07 "HgN/A
5:00 PM68 °FClear.8 mph43%30.07 "HgN/A
4:30 PM66 °FClear.8 mph46%30.07 "HgN/A
4:00 PM66 °FClear.6 mph46%30.09 "HgN/A
3:30 PM66 °FMild.6 mph46%30.12 "HgN/A
3:00 PM66 °FClear.8 mph46%30.12 "HgN/A
2:30 PM64 °FClear.9 mph49%30.12 "HgN/A
2:00 PM66 °FClear.10 mph46%30.12 "HgN/A
1:30 PM64 °FClear.10 mph52%30.12 "HgN/A
1:00 PM64 °FClear.12 mph52%30.15 "HgN/A
12:30 PM63 °FClear.13 mph56%30.15 "HgN/A
12:00 PM61 °FClear.9 mph59%30.15 "Hg6 mi
11:30 AM59 °FClear.9 mph68%30.18 "Hg4 mi
11:00 AM57 °FFog.9 mph72%30.18 "Hg3 mi
10:30 AM55 °FFog.5 mph77%30.18 "Hg3 mi
10:00 AM54 °FFog.6 mph82%30.18 "Hg2 mi
9:30 AM52 °FFog.7 mph82%30.18 "Hg2 mi
9:00 AM48 °FFog.7 mph94%30.18 "Hg2 mi
8:30 AM46 °FFog.7 mph93%30.18 "Hg2 mi
8:00 AM45 °FFog.3 mph93%30.18 "Hg1 mi
7:30 AM45 °FFog.2 mph93%30.18 "Hg1 mi
7:00 AM46 °FFog.6 mph93%30.18 "Hg2 mi
6:30 AM46 °FFog.6 mph93%30.18 "Hg2 mi
6:00 AM45 °FFog.3 mph93%30.18 "Hg1 mi
5:30 AM45 °FFog.5 mph93%30.18 "Hg1 mi
5:00 AM45 °FFog.3 mph93%30.18 "Hg1 mi
4:30 AM46 °FFog.6 mph93%30.18 "Hg1 mi
4:00 AM46 °FFog.6 mph93%30.18 "Hg1 mi
3:30 AM46 °FFog.6 mph93%30.18 "Hg2 mi
3:00 AM48 °FFog.2 mph87%30.18 "Hg3 mi
2:30 AM50 °FFog.5 mph82%30.18 "Hg3 mi
2:00 AM50 °FFog.6 mph88%30.18 "Hg3 mi
1:30 AM50 °FFog.6 mph82%30.18 "Hg3 mi
1:00 AM52 °FClear.7 mph82%30.21 "Hg4 mi
12:30 AM52 °FClear.9 mph82%30.21 "Hg5 mi
12:00 AM54 °FClear.7 mph77%30.21 "Hg6 mi
11:30 PM
Sep 22
55 °FClear.9 mph72%30.21 "HgN/A
11:00 PM55 °FClear.10 mph77%30.21 "HgN/A
10:30 PM55 °FClear.9 mph77%30.21 "Hg5 mi
10:00 PM57 °FClear.10 mph72%30.21 "HgN/A
9:30 PM59 °FClear.10 mph68%30.21 "HgN/A
9:00 PM61 °FClear.8 mph63%30.21 "HgN/A
Weather by CustomWeather, © 2014

See weather overviewHow to use our weather pages